Location: São Paulo
(23.5507°S, 46.6334°W)
Time: 07:45:20
(UTC-03:00)

Vanguard 3 - Pass Details

Date: 22 February 2026
Orbit: 507 x 3205 km, 33.4° (Epoch: 7 March)

Event Time Altitude Azimuth Distance (km) Brightness Sun altitude
Exits shadow 04:24:22 21° 251° (WSW) 2,816 9.5 -21.5°
Maximum altitude 04:30:59 54° 182° (S) 2,250 9.4 -20.1°
Drops below altitude 10° 04:46:07 10° 108° (ESE) 5,574 12.7 -16.8°
Sets 04:51:24 0° 103° (ESE) 6,874 13.7 -15.7°
